Regional Weather Roundup
Issued by NWS Newport/Morehead, NC

Current Version | Previous Version | Graphics & Text | Print | Product List | Glossary On
Versions: 1 2 3 4 5 6 7 8 9 10 11 12 13 14 15 16 17 18 19 20 21 22 23 24 25 26 27 28 29 30 31 32 33 34 35 36 37 38 39 40 41 42 43 44 45 46 47 48 49 50
000 ASUS42 KMHX 080625 RWRMHX WEATHER ROUNDUP FOR EASTERN NORTH CAROLINA NATIONAL WEATHER SERVICE NEWPORT/MOREHEAD CITY NC 200 AM EDT WED JUL 08 2015 NOTE: "FAIR" INDICATES FEW OR NO CLOUDS BELOW 12,000 FEET WITH NO SIGNIFICANT WEATHER AND/OR OBSTRUCTIONS TO VISIBILITY NCZ015>017-031-032-045>047-102-103-080700- NORTH COAST CITY SKY/WX TMP DP RH WIND PRES REMARKS EDENTON CLEAR 77 73 85 SW10G16 30.10S ELIZABETH CITY CLEAR 78 74 87 SW12 30.09F KITTY HAWK CLEAR 79 73 84 SW6 30.09S MANTEO CLEAR 78 74 90 SW13 30.11S $$ NCZ045>047-081-094-103-104-080700- CENTRAL COAST CITY SKY/WX TMP DP RH WIND PRES REMARKS FRISCO CLEAR 77 75 93 SW10 30.14S SWANQUARTER N/A 81 N/A N/A SW17G25 30.09S $$ NCZ095-097-098-100-101-080700- SOUTHERN COAST CITY SKY/WX TMP DP RH WIND PRES REMARKS BEAUFORT CLEAR 80 76 87 SW13 30.14F CEDAR ISLAND N/A 79 N/A N/A S5G13 30.18S JACKSONVILLE CLEAR 76 72 87 S5 30.13S PINEY ISLAND CLEAR N/A N/A N/A S8 30.13F WILMINGTON CLEAR 78 74 87 S7 30.14S $$ NCZ011>013-027>030-043-044-078>080-089-090>093-098-080700- COASTAL PLAIN CITY SKY/WX TMP DP RH WIND PRES REMARKS AHOSKIE PTCLDY 75 71 86 S3 30.09S CLINTON PTCLDY 75 75 98 CALM 30.13S ELIZABETHTOWN CLEAR 77 75 94 S6 30.13F GOLDSBORO CLEAR 76 73 90 VRB5 30.10S GREENVILLE CLEAR 77 73 88 S7 30.12S HAVELOCK PTCLDY 79 75 87 SW9 30.14F KENANSVILLE CLEAR 75 73 92 CALM 30.14S KINSTON CLEAR 77 73 87 S8 30.12F NEW BERN CLEAR 77 73 87 S5 30.14S RICHLANDS CLEAR 73 68 83 S7 30.13F ROCKY MOUNT PTCLDY 77 73 87 S7 30.10F WASHINGTON CLEAR 76 72 89 S8 30.12S WHITEVILLE CLEAR 76 73 90 S5 30.13F $$ AMZ130-135-150-152-154-156-158-170-250-252-270-ANZ085-086-088-633-658-670-080700- MARINE OBSERVATIONS STATION/POSITION TIME TEMP WIND PRES WAVE SWELL AIR SEA DIR/SP/G HT/PER HT/PER (UTC) (F) (DEG/KT/KT) (MB) (FT/S) (FT/S) CHESAPEAKE LIGHT 0600 80 230/ 18/ 20 1018.4 64 E VA BEACH 0550 79 76 220/ 16/ 17 1018.3 4/ 8 2/ 8 DUCK 0600 80 64 230/ 15/ 19 N/A 2 E DUCK 0511 76 N/A 2/11 2/11 OREGON INLET 0600 81 83 210/ 18/ 22 1019.5 13E OREGON INLT 0600 77 N/A 3/ 5 2/13 HATTERAS CG 0600 79 82 220/ 8/ 11 1020.2 DIAMOND BUOY 0550 81 83 230/ 16/ 17 1020.3 3/ 4 2/ 8 CAPE LOOKOUT 0600 80 220/ 12/ 15 1020.5 BEAUFORT LAB 0600 80 82 220/ 10/ 13 1019.9 30 SE NEW RVR IN NOT AVBL 27 SE WRIGHTSVLE 0600 80 230/ 10/ 12 N/A 5 SE WRIGHTSVLE 0508 80 79 220/ 12/ 16 1020.7 225 S CAPE HAT 0550 82 81 210/ 10/ 12 1022.8 4/ 8 3/ 8 41 SE CHARLESTON 0550 82 83 220/ 10/ 12 1020.5 3/ 9 3/ 9 $$

USA.gov is the U.S. government's official web portal to all federal, state and local government web resources and services.